Regional Weather Roundup
Issued by NWS Green Bay, WI

Home | Current Version | Previous Version | Graphics & Text | Print | Product List | Glossary Off
Versions: 1 2 3 4 5 6 7 8 9 10 11 12 13 14 15 16 17 18 19 20 21 22 23 24 25 26 27 28 29 30 31 32 33 34 35 36 37 38 39 40 41 42 43 44 45 46 47 48 49 50

000
ASUS43 KGRB 221100
RWRGRB

NORTH-CENTRAL AND NORTHEAST WISCONSIN REGIONAL WEATHER ROUNDUP
NATIONAL WEATHER SERVICE GREEN BAY WI
600 AM CDT WED MAR 22 2017

WIZ005-009-010>012-018-019-221200-
NORTH CENTRAL WISCONSIN

CITY           SKY/WX    TMP DP  RH WIND       PRES   REMARKS
IRONWOOD       CLEAR     10   8  92 CALM      30.55R
MANITOWISH WTR NOT AVBL
ARBOR VITAE    NOT AVBL
EAGLE RIVER    NOT AVBL
LAND O LAKES   NOT AVBL
RHINELANDER    CLEAR     10   5  80 CALM      30.51R
PHILLIPS       CLOUDY     8   6  91 CALM      30.52R
ANTIGO         NOT AVBL
TOMAHAWK       NOT AVBL
MERRILL        NOT AVBL
$$

WIZ013-073-221200-
NORTHEAST WISCONSIN

CITY           SKY/WX    TMP DP  RH WIND       PRES   REMARKS
IRON MOUNTAIN  CLEAR      8   1  73 CALM      30.53R
MARINETTE        N/A    N/A N/A N/A MISG        N/A
$$

WIZ017-030-035>037-045-221200-
CENTRAL WISCONSIN

CITY           SKY/WX    TMP DP  RH WIND       PRES   REMARKS
MEDFORD        NOT AVBL
WAUSAU         CLEAR     16   7  67 N3        30.53R
MOSINEE        CLEAR     18   9  68 N5        30.54R
MARSHFIELD     CLEAR     17   7  64 NE7       30.51R WCI   8
WISC RAPIDS    PTCLDY    16  10  77 NE6       30.55R WCI   7
STEVENS POINT  NOT AVBL
WAUPACA        NOT AVBL
SHAWANO        CLEAR     19   9  64 N6        30.57R
CLINTONVILLE   CLEAR     19   9  63 N3        30.56S
WAUTOMA        NOT AVBL
$$

WIZ038-039-048-051-221200-
FOX VALLEY

CITY           SKY/WX    TMP DP  RH WIND       PRES   REMARKS
NWS GREEN BAY  CLEAR     20  10  65 N9        30.57R WCI   9
APPLETON       CLEAR     18   7  62 N6        30.53R WCI   9
OSHKOSH        PTCLDY    22   6  50 NE9       30.55R
FOND DU LAC    CLEAR     22   5  48 NE12      30.55R
$$

WIZ022-050-052-221200-
EAST CENTRAL WISCONSIN

CITY           SKY/WX    TMP DP  RH WIND       PRES   REMARKS
EPHRAIM        NOT AVBL
WASHINGTON ISL NOT AVBL
STURGEON BAY   CLEAR     20   9  62 NE7       30.57R
MANITOWOC      NOT AVBL
SHEBOYGAN      PTCLDY    21   7  54 N8        30.55R
$$

LMZ563-521-522-541>543-221200-
LAKESHORE

STATION/POSITION TIME  TEMP    WIND        PRES    VSBY  WAVE
                       AIR SEA DIR/SP/G                  HT/PER
                 (UTC) (F)     (DEG/KT/KT) (MB)    (MI)  (FT/S)
SHEBOYGAN LKSHOR 1000   24     360/ 16/ 19 1034.9R
KEWAUNEE LKSHORE 1030   22      10/  7/ 13 1033.9R
NORTHPORT PIER   1040   21     360/ 10/ 15 1034.5S
SISTER BAY LKSHO 1035   20      20/ 10/ 11   N/A
CHAMBERS ISLAND  1040   20     360/ 13/ 18 1034.2R
MENOMINEE LKSHOR 1030   21      10/ 11/ 20 1034.2R
$$




USA.gov is the U.S. government's official web portal to all federal, state and local government web resources and services.